TimeCDT,TemperatureF,Dew PointF,Humidity,Sea Level PressureIn,VisibilityMPH,Wind Direction,Wind SpeedMPH,Gust SpeedMPH,PrecipitationIn,Events,Conditions,WindDirDegrees,DateUTC
12:14 AM,59.0,53.6,82,29.96,10.0,ESE,4.6,-,N/A,,Overcast,110,2013-08-05 05:14:00
12:34 AM,59.0,53.6,82,29.95,7.0,ESE,9.2,-,0.01,Rain-Thunderstorm,Rain,110,2013-08-05 05:34:00
12:54 AM,57.2,53.6,88,29.94,10.0,ESE,8.1,-,0.05,Rain,Rain,110,2013-08-05 05:54:00
1:14 AM,57.2,53.6,88,29.93,10.0,ESE,8.1,-,0.04,Rain,Rain,120,2013-08-05 06:14:00
1:34 AM,57.2,53.6,88,29.92,10.0,ESE,8.1,-,0.06,Rain,Light Rain,110,2013-08-05 06:34:00
1:54 AM,57.2,53.6,88,29.91,10.0,ESE,8.1,-,0.06,Rain,Light Rain,110,2013-08-05 06:54:00
2:14 AM,57.2,53.6,88,29.90,10.0,ESE,6.9,-,N/A,Thunderstorm,Mostly Cloudy,110,2013-08-05 07:14:00
2:34 AM,57.2,53.6,88,29.89,10.0,ESE,8.1,-,N/A,,Overcast,110,2013-08-05 07:34:00
2:54 AM,57.2,53.6,88,29.89,10.0,East,4.6,-,N/A,,Overcast,100,2013-08-05 07:54:00
3:14 AM,57.2,53.6,88,29.89,10.0,East,4.6,-,N/A,,Overcast,90,2013-08-05 08:14:00
3:34 AM,57.2,53.6,88,29.88,10.0,East,4.6,-,N/A,,Overcast,80,2013-08-05 08:34:00
3:54 AM,57.2,53.6,88,29.88,10.0,ENE,3.5,-,N/A,,Light Drizzle,70,2013-08-05 08:54:00
4:14 AM,57.2,53.6,88,29.87,10.0,East,4.6,-,N/A,,Overcast,90,2013-08-05 09:14:00
4:34 AM,57.2,53.6,88,29.86,10.0,ENE,4.6,-,N/A,,Overcast,60,2013-08-05 09:34:00
4:54 AM,57.2,53.6,88,29.86,10.0,Calm,Calm,-,N/A,,Overcast,0,2013-08-05 09:54:00
5:14 AM,57.2,53.6,88,29.86,10.0,NE,4.6,-,N/A,,Overcast,40,2013-08-05 10:14:00
5:34 AM,57.2,53.6,88,29.86,10.0,NE,3.5,-,N/A,,Overcast,40,2013-08-05 10:34:00
5:54 AM,57.2,53.6,88,29.86,10.0,NE,3.5,-,N/A,,Overcast,50,2013-08-05 10:54:00
6:14 AM,57.2,53.6,88,29.86,10.0,Calm,Calm,-,N/A,,Overcast,0,2013-08-05 11:14:00
6:34 AM,57.2,53.6,88,29.86,10.0,NE,3.5,-,N/A,,Overcast,40,2013-08-05 11:34:00
6:54 AM,57.2,53.6,88,29.86,10.0,NNE,3.5,-,N/A,,Overcast,20,2013-08-05 11:54:00
7:14 AM,59.0,53.6,82,29.86,10.0,NE,3.5,-,N/A,,Overcast,40,2013-08-05 12:14:00
7:34 AM,60.8,53.6,77,29.86,10.0,NE,4.6,-,N/A,,Overcast,40,2013-08-05 12:34:00
7:54 AM,60.8,55.4,82,29.87,10.0,NE,3.5,-,N/A,,Overcast,50,2013-08-05 12:54:00
8:14 AM,60.8,55.4,82,29.86,10.0,NE,3.5,-,0.01,,Overcast,50,2013-08-05 13:14:00
8:34 AM,60.8,55.4,82,29.86,10.0,East,3.5,-,0.01,,Overcast,90,2013-08-05 13:34:00
8:55 AM,60.8,55.4,82,29.86,10.0,Calm,Calm,-,0.01,,Overcast,0,2013-08-05 13:55:00
9:14 AM,60.8,55.4,82,29.86,10.0,Calm,Calm,-,N/A,,Overcast,0,2013-08-05 14:14:00
9:34 AM,62.6,57.2,82,29.86,10.0,NNW,3.5,-,N/A,,Overcast,340,2013-08-05 14:34:00
9:55 AM,62.6,57.2,82,29.86,10.0,North,5.8,-,N/A,,Overcast,350,2013-08-05 14:55:00
10:14 AM,62.6,57.2,82,29.86,10.0,North,6.9,-,N/A,,Overcast,350,2013-08-05 15:14:00
10:34 AM,62.6,57.2,82,29.86,10.0,North,5.8,-,N/A,,Overcast,350,2013-08-05 15:34:00
10:55 AM,62.6,57.2,82,29.86,7.0,NNW,6.9,-,N/A,,Overcast,340,2013-08-05 15:55:00
11:14 AM,62.6,57.2,82,29.86,3.0,NNW,8.1,-,N/A,,Haze,340,2013-08-05 16:14:00
11:34 AM,62.6,57.2,82,29.86,4.0,NNE,4.6,-,N/A,,Haze,20,2013-08-05 16:34:00
11:55 AM,62.6,57.2,82,29.87,5.0,North,4.6,-,N/A,,Haze,360,2013-08-05 16:55:00
12:14 PM,62.6,57.2,82,29.87,7.0,NNE,9.2,-,N/A,,Overcast,30,2013-08-05 17:14:00
12:34 PM,62.6,57.2,82,29.87,4.0,NNE,6.9,-,N/A,,Light Drizzle,20,2013-08-05 17:34:00
12:54 PM,64.4,59.0,83,29.87,10.0,North,6.9,-,N/A,,Mostly Cloudy,10,2013-08-05 17:54:00
1:14 PM,64.4,59.0,83,29.87,10.0,NNE,4.6,-,N/A,,Mostly Cloudy,30,2013-08-05 18:14:00
1:34 PM,64.4,59.0,83,29.86,10.0,NNE,4.6,-,N/A,,Mostly Cloudy,30,2013-08-05 18:34:00
1:54 PM,66.2,60.8,83,29.86,10.0,NNE,3.5,-,N/A,,Scattered Clouds,20,2013-08-05 18:54:00
2:14 PM,69.8,60.8,73,29.85,10.0,Calm,Calm,-,N/A,,Scattered Clouds,0,2013-08-05 19:14:00
2:34 PM,69.8,60.8,73,29.85,10.0,Calm,Calm,-,N/A,,Scattered Clouds,0,2013-08-05 19:34:00
2:54 PM,69.8,60.8,73,29.84,10.0,Calm,Calm,-,N/A,,Scattered Clouds,0,2013-08-05 19:54:00
3:14 PM,71.6,60.8,69,29.84,10.0,WNW,3.5,-,N/A,,Scattered Clouds,300,2013-08-05 20:14:00
3:34 PM,71.6,59.0,64,29.83,10.0,WNW,5.8,-,N/A,,Clear,290,2013-08-05 20:34:00
3:54 PM,71.6,59.0,64,29.83,10.0,West,9.2,-,N/A,,Scattered Clouds,280,2013-08-05 20:54:00
4:14 PM,73.4,59.0,61,29.82,10.0,WSW,8.1,-,N/A,,Scattered Clouds,240,2013-08-05 21:14:00
4:34 PM,73.4,57.2,57,29.82,10.0,WNW,6.9,-,N/A,,Scattered Clouds,290,2013-08-05 21:34:00
4:54 PM,73.4,57.2,57,29.81,10.0,WSW,6.9,-,N/A,,Scattered Clouds,240,2013-08-05 21:54:00
5:14 PM,73.4,57.2,57,29.80,10.0,WNW,5.8,-,N/A,,Scattered Clouds,290,2013-08-05 22:14:00
5:34 PM,71.6,57.2,60,29.80,10.0,West,6.9,-,N/A,,Clear,270,2013-08-05 22:34:00
5:54 PM,73.4,57.2,57,29.80,10.0,WNW,9.2,-,N/A,,Scattered Clouds,290,2013-08-05 22:54:00
6:14 PM,73.4,57.2,57,29.80,10.0,West,6.9,-,N/A,,Clear,260,2013-08-05 23:14:00
6:34 PM,73.4,57.2,57,29.80,10.0,West,9.2,-,N/A,,Clear,270,2013-08-05 23:34:00
6:54 PM,71.6,57.2,60,29.79,10.0,WNW,5.8,-,N/A,,Clear,290,2013-08-05 23:54:00
7:14 PM,71.6,57.2,60,29.79,10.0,West,5.8,-,N/A,,Clear,280,2013-08-06 00:14:00
7:34 PM,71.6,59.0,64,29.79,10.0,West,6.9,-,N/A,,Clear,270,2013-08-06 00:34:00
7:54 PM,69.8,57.2,64,29.78,10.0,West,5.8,-,N/A,,Clear,260,2013-08-06 00:54:00
8:14 PM,69.8,59.0,68,29.79,10.0,West,5.8,-,N/A,,Clear,270,2013-08-06 01:14:00
8:34 PM,68.0,59.0,73,29.79,10.0,WSW,5.8,-,N/A,,Clear,250,2013-08-06 01:34:00
8:54 PM,66.2,57.2,73,29.79,10.0,SW,5.8,-,N/A,,Clear,230,2013-08-06 01:54:00
9:14 PM,64.4,57.2,77,29.79,10.0,SW,5.8,-,N/A,,Clear,230,2013-08-06 02:14:00
9:34 PM,62.6,57.2,82,29.79,10.0,SW,4.6,-,N/A,,Clear,220,2013-08-06 02:34:00
9:54 PM,60.8,55.4,82,29.78,10.0,South,5.8,-,N/A,,Clear,190,2013-08-06 02:54:00
10:14 PM,60.8,55.4,82,29.79,10.0,SSW,4.6,-,N/A,,Scattered Clouds,200,2013-08-06 03:14:00
10:34 PM,60.8,55.4,82,29.79,10.0,SW,9.2,-,N/A,,Mostly Cloudy,220,2013-08-06 03:34:00
10:54 PM,60.8,55.4,82,29.78,10.0,SSW,5.8,-,N/A,,Scattered Clouds,200,2013-08-06 03:54:00
11:14 PM,60.8,55.4,82,29.78,10.0,SSW,6.9,-,N/A,,Scattered Clouds,210,2013-08-06 04:14:00
11:34 PM,62.6,55.4,77,29.77,10.0,SSW,8.1,-,N/A,,Mostly Cloudy,210,2013-08-06 04:34:00
11:54 PM,60.8,55.4,82,29.77,10.0,SW,8.1,-,N/A,,Scattered Clouds,220,2013-08-06 04:54:00